OPS 4682 DEB, 38414

Orbit data source: Space-Track

OPS 4682 DEB, 38414 is space debris in LEO originally from a launch on Sat, 03 Apr 1965 UTC launched from the Air Force Western Test Range (AFWTR). Debris objects in space refer to the collection of defunct objects orbiting the Earth. Examples of debris include non-operational satellites, rocket bodies, and fragments generated from explosions, collisions, or faulty payload assembly.

Loading next visibility...
Identifier
38414, 1965-027DT
Orbit
LEO
Country
Flag of USUS
Related business
Manufacturer
Unknown
Mission
Spacecraft
Bus & Motor
Unknown
Mass
Unknown
Launch date (UTC)
1965-04-03 (61 years ago)
Launch vehicle
Unknown
Launch site
Air Force Western Test Range (AFWTR)
Object type
Payload
Rocket body
Debris
Shape & HBR
Unknown shape, 0.1 m
Radar Cross Section
Medium (>0.1 m² and <1 m²)

Expand to show TLE details & history
Last TLE update: 3 weeks ago

TLE from 3 weeks ago
0 OPS 4682 DEB
1 38414U 65027DT  26137.35005090  .00000727  00000-0  24490-2 0  9998
2 38414  90.2322 351.7384 0038267 188.2710 171.7785 12.98070590136809
Epoch: 2026-05-17T08:24Z
TLE epoch observation values (Epoch: 2026-05-17T08:24:04.397Z)
Latitude
-0.00002°
Longitude
-9.33385°
Altitude
1,301.509 km
Speed
7.192 km/s
True Right ascension
23h 26m 57s
True Declination
0° 00' 00"
Sunlit
Object was in daylight at epoch
Visualization orbit readout
Latitude
Unknown
Longitude
Unknown
Altitude
Unknown
Speed
Unknown
Apparent Right ascension
Unknown
Apparent Declination
Unknown
Sunlit
N/A
Visualization observer readout
Local Sidereal Time
14:17:37
Azimuth
Unknown
Elevation
Unknown
Doppler factor
Unknown
Orbital elements
Apogee altitude
1,296.04 km
Perigee altitude
1,237.531 km
Semi-major axis
7,644.922 km
Eccentricity
0.00383
Inclination
90.2322°
RAAN
351.7384°
Arg. of periapsis
188.271°
True anomaly
171.84091°
Mean anomaly
171.7785°
Eccentric anomaly
171.80974°
Mean motion
3.24701 °/min
Orbital period
110.87 mins
BSTAR
0.002449
Loading maneuver chart data...
Computing Atmospheric mass density...
Loading historical data...
Loading historical data...
Loading historical data...
Loading historical data...
Loading historical data...
Loading historical data...
Loading historical data...

Documentation

Showing up to 5 results
|